[[{"header":{"parameterUnit":"m.s-1","parameterCategory":1,"la1":30.2991,"la2":30.254,"lo1":-89.0895,"lo2":-89.0444,"dy":0.0017,"dx":0.0017,"nx":28,"ny":28,"refTime":"2024-04-15T03:00:00:Z","depth":0,"parameterNumber":2,"parameterNumberName":"U-component_of_WINDS"},"data":[0,0,0,0,0,0,0,0,0,0,0,0,0,0,0,0,0,0,0,0,0,0,0,0,0,0,0,0,0,0,0,0,0,0,0,0,0,0,0,0,0,0,0,0,0,0,0,0,0,0,0,0,0,0,0,0,0,0,-2.5565,-2.5564,0,-2.554,-2.554,-2.5539,-2.5512,-2.5512,-2.5512,-2.5511,-2.5485,-2.5484,-2.5484,0,0,0,0,0,0,0,0,0,0,0,0,0,-2.5588,-2.5588,-2.5565,-2.5564,-2.5564,-2.554,-2.554,-2.5539,-2.5512,-2.5512,-2.5511,-2.5511,-2.5485,-2.5485,-2.5484,0,0,0,0,0,0,0,0,0,0,0,0,0,-2.5572,-2.5588,-2.5565,-2.5548,-2.5546,-2.554,-2.554,-2.5539,-2.5512,-2.5512,-2.5511,-2.5511,-2.5485,-2.5485,-2.5484,-2.5493,0,0,-2.5482,-2.5482,0,0,0,0,0,0,0,0,-2.5573,-2.5571,-2.5551,-2.5549,-2.5547,-2.5529,-2.5538,-2.5524,-2.5513,-2.5525,-2.5511,-2.551,-2.55,-2.5498,-2.5495,-2.5491,-2.549,-2.5482,-2.5482,-2.5482,-2.5482,0,0,0,0,0,0,0,-2.5574,-2.5572,-2.5555,-2.555,-2.5548,-2.5541,-2.5538,-2.5535,-2.5516,-2.5524,-2.5522,-2.552,-2.5499,-2.5495,-2.5494,-2.549,-2.5482,-2.5482,-2.5482,-2.5481,-2.5493,-2.5493,0,0,0,0,0,0,-2.5578,-2.5573,-2.5556,-2.5554,-2.5559,-2.5541,-2.5538,-2.5535,-2.5516,-2.5513,-2.552,-2.5518,-2.5496,-2.5494,-2.5493,-2.5501,-2.5482,-2.5481,-2.5481,-2.5492,-2.5493,-2.5493,0,0,0,0,0,0,-2.5579,-2.5577,-2.5557,-2.5563,-2.556,-2.5542,-2.5538,-2.5535,-2.5531,-2.5513,-2.5509,-2.552,-2.5496,-2.5493,-2.5493,-2.55,-2.5481,-2.5481,-2.5491,-2.5492,-2.5493,-2.5519,0,0,0,0,0,0,-2.558,-2.5577,-2.558,-2.5564,-2.556,-2.5557,-2.5539,-2.5535,-2.5531,-2.5528,-2.5512,-2.5509,-2.5495,-2.5494,-2.5492,-2.5499,-2.548,-2.549,-2.5492,-2.5493,-2.5517,-2.552,-2.5523,0,0,0,0,0,-2.5581,-2.5588,-2.5581,-2.5578,-2.5563,-2.5558,-2.5556,-2.554,-2.5531,-2.5534,-2.5523,-2.5509,-2.55,-2.5494,-2.5492,-2.5499,-2.549,-2.5491,-2.5493,-2.5516,-2.552,-2.5523,0,0,0,0,0,0,-2.5606,-2.5586,-2.5577,-2.5579,-2.5571,-2.5553,-2.5556,-2.5545,-2.5538,-2.5536,-2.5517,-2.5514,-2.5515,-2.5507,-2.5501,-2.5506,-2.5493,-2.5494,-2.5511,-2.5515,-2.5518,-2.5519,-2.548,0,0,0,0,0,-2.5612,-2.5609,-2.5592,-2.5596,-2.5592,-2.5575,-2.5572,-2.5561,-2.5551,-2.5547,-2.5535,-2.5526,-2.552,-2.5517,-2.5512,-2.5516,-2.5512,-2.552,-2.5523,-2.5526,-2.5526,-2.5528,-2.5532,-2.5498,-2.5498,-2.5498,0,0,-2.5624,-2.5612,-2.5612,-2.56,-2.5592,-2.559,-2.5572,-2.557,-2.5568,-2.5546,-2.5545,-2.5536,-2.5525,-2.5527,-2.5527,-2.552,-2.5535,-2.5527,-2.553,-2.5529,-2.553,-2.5533,-2.5536,-2.5499,-2.5498,-2.5498,0,0,-2.5644,-2.5636,-2.5638,-2.563,-2.5618,-2.5607,-2.5608,-2.5593,-2.5586,-2.5585,-2.5569,-2.5566,-2.5558,-2.555,-2.5545,-2.5564,-2.5551,-2.5563,-2.5578,-2.558,-2.5583,-2.5585,-2.5592,-2.5594,-2.5564,-2.5564,-2.5564,0,-2.566,-2.5656,-2.564,-2.564,-2.5635,-2.5616,-2.5619,-2.5612,-2.5599,-2.5596,-2.5588,-2.5578,-2.5569,-2.5569,-2.5574,-2.557,-2.557,-2.5564,-2.5584,-2.5586,-2.5588,-2.5594,-2.5596,-2.5565,-2.5565,-2.5565,-2.5565,0,-2.5677,-2.5674,-2.5677,-2.5666,-2.5661,-2.5662,-2.5647,-2.5644,-2.5634,-2.5624,-2.5623,-2.5612,-2.5603,-2.5603,-2.5593,-2.5602,-2.5598,-2.5587,-2.5574,-2.5593,-2.5598,-2.56,-2.5567,-2.5567,-2.5566,-2.5566,0,0,-2.5711,-2.5691,-2.5693,-2.5687,-2.5673,-2.5671,-2.5671,-2.5663,-2.5662,-2.5654,-2.5653,-2.5647,-2.5638,-2.5632,-2.5621,-2.5623,-2.5639,-2.5612,-2.5612,-2.5617,-2.5648,-2.5655,-2.5658,-2.5631,-2.5631,-2.5632,-2.5649,0,-2.5729,-2.5728,-2.5714,-2.5717,-2.5714,-2.5697,-2.5697,-2.5688,-2.5679,-2.5676,-2.5666,-2.5662,-2.565,-2.5646,-2.5648,-2.5637,-2.5644,-2.5635,-2.563,-2.563,-2.5632,-2.5661,-2.5669,-2.5685,-2.5651,-2.5651,-2.5651,0,-2.5749,-2.5742,-2.5745,-2.5731,-2.5729,-2.573,-2.5722,-2.5719,-2.5709,-2.5702,-2.5697,-2.5685,-2.5684,-2.5672,-2.567,-2.5664,-2.5662,-2.5656,-2.5656,-2.5655,-2.5641,-2.5659,-2.569,-2.5693,-2.5655,-2.5654,-2.5654,0,-2.5773,-2.5765,-2.5766,-2.5761,-2.5746,-2.5746,-2.574,-2.5729,-2.5726,-2.5719,-2.5717,-2.571,-2.5706,-2.5701,-2.5688,-2.568,-2.5688,-2.5675,-2.5682,-2.5683,-2.5684,-2.5684,-2.5714,-2.5683,-2.5683,-2.5683,-2.5683,0,-2.5794,-2.5796,-2.5776,-2.5777,-2.5779,-2.5763,-2.5766,-2.5757,-2.5749,-2.5747,-2.5732,-2.5731,-2.5713,-2.571,-2.57,-2.57,-2.5699,-2.5693,-2.569,-2.5694,-2.5695,-2.5691,-2.569,-2.5684,-2.5684,-2.5683,-2.5683,0,-2.5821,-2.5808,-2.5807,-2.5793,-2.5789,-2.5791,-2.5779,-2.5778,-2.5769,-2.5767,-2.5766,-2.5751,-2.5746,-2.5733,-2.5725,-2.5718,-2.5721,-2.5716,-2.5725,-2.5723,-2.5731,-2.573,-2.5759,-2.5763,-2.573,-2.5731,-2.5731,0,-2.5835,-2.5836,-2.5821,-2.5819,-2.5814,-2.581,-2.5807,-2.5792,-2.5789,-2.5779,-2.578,-2.5774,-2.5769,-2.5763,-2.5751,-2.5745,-2.574,-2.575,-2.5739,-2.5743,-2.5739,-2.5739,-2.5739,-2.5753,-2.5753,-2.5753,-2.5754,0,-2.586,-2.5854,-2.5849,-2.5843,-2.5839,-2.5833,-2.5826,-2.5826,-2.5809,-2.5807,-2.5802,-2.5798,-2.5791,-2.5786,-2.5778,-2.5771,-2.576,-2.5758,-2.5759,-2.5763,-2.5768,-2.5765,-2.5731,-2.5757,-2.5757,-2.5756,-2.5756,-2.5756,-2.588,-2.5881,-2.5871,-2.5867,-2.586,-2.5854,-2.5853,-2.5844,-2.584,-2.5833,-2.5824,-2.5821,-2.5812,-2.5801,-2.5795,-2.5792,-2.5786,-2.5788,-2.5788,-2.5789,-2.5791,-2.5769,-2.5791,-2.5791,-2.5791,-2.579,-2.579,0,-2.5905,-2.5898,-2.5894,-2.5885,-2.5882,-2.5872,-2.5864,-2.5862,-2.5859,-2.5852,-2.5847,-2.5843,-2.5838,-2.5826,-2.582,-2.5821,-2.5815,-2.5819,-2.5819,-2.5818,-2.5797,-2.5796,-2.5824,-2.5824,-2.5824,-2.5824,-2.5824,-2.5824,-2.5917,-2.5917,-2.591,-2.5907,-2.59,-2.5897,-2.5893,-2.5888,-2.5882,-2.5877,-2.5873,-2.5866,-2.5857,-2.585,-2.5846,-2.5842,-2.5841,-2.5847,-2.5842,-2.5822,-2.5819,-2.5816,-2.5815,-2.5847,-2.5847,-2.5863,-2.5863,-2.5863]},{"header":{"parameterUnit":"m.s-1","parameterCategory":1,"la1":30.2991,"la2":30.254,"lo1":-89.0895,"lo2":-89.0444,"dy":0.0017,"dx":0.0017,"nx":28,"ny":28,"refTime":"2024-04-15T03:00:00:Z","depth":0,"parameterNumber":3,"parameterNumberName":"V-component_of_WINDS"},"data":[0,0,0,0,0,0,0,0,0,0,0,0,0,0,0,0,0,0,0,0,0,0,0,0,0,0,0,0,0,0,0,0,0,0,0,0,0,0,0,0,0,0,0,0,0,0,0,0,0,0,0,0,0,0,0,0,0,0,3.5528,3.5528,0,3.5526,3.5526,3.5526,3.5486,3.5485,3.5484,3.5483,3.5479,3.548,3.5481,0,0,0,0,0,0,0,0,0,0,0,0,0,3.5494,3.5495,3.5528,3.5528,3.5528,3.5526,3.5526,3.5526,3.5486,3.5485,3.5483,3.5482,3.5479,3.548,3.5481,0,0,0,0,0,0,0,0,0,0,0,0,0,3.5502,3.5495,3.5528,3.5508,3.5506,3.5526,3.5526,3.5526,3.5486,3.5485,3.5483,3.5482,3.5479,3.548,3.5481,3.552,0,0,3.5485,3.5486,0,0,0,0,0,0,0,0,3.5502,3.5503,3.5511,3.5509,3.5507,3.5505,3.5513,3.5524,3.5487,3.5494,3.5483,3.5481,3.5489,3.5489,3.5492,3.552,3.552,3.5485,3.5486,3.5487,3.5487,0,0,0,0,0,0,0,3.5501,3.5503,3.5527,3.5511,3.5509,3.5498,3.5497,3.5515,3.55,3.5493,3.549,3.549,3.5488,3.5491,3.5492,3.552,3.5485,3.5487,3.5487,3.5488,3.5576,3.5577,0,0,0,0,0,0,3.5504,3.5503,3.5527,3.5527,3.5501,3.55,3.5499,3.5507,3.55,3.5497,3.5492,3.5489,3.549,3.549,3.5492,3.5534,3.5487,3.5488,3.5489,3.5574,3.5576,3.5578,0,0,0,0,0,0,3.5503,3.5506,3.5527,3.5514,3.5516,3.5502,3.5511,3.5508,3.5511,3.5499,3.5496,3.5498,3.5488,3.549,3.5513,3.5534,3.5489,3.549,3.5572,3.5575,3.5577,3.5622,0,0,0,0,0,0,3.5502,3.5506,3.5522,3.5515,3.5517,3.5549,3.5512,3.5509,3.5514,3.5509,3.5504,3.5501,3.5487,3.5511,3.5514,3.5535,3.5491,3.5571,3.5574,3.5576,3.5618,3.5625,3.5631,0,0,0,0,0,3.5501,3.5535,3.5523,3.5526,3.5536,3.5551,3.5552,3.5535,3.5516,3.553,3.5522,3.5502,3.5531,3.5514,3.5517,3.5538,3.5569,3.5573,3.5576,3.5615,3.5624,3.5631,0,0,0,0,0,0,3.5545,3.5534,3.552,3.5553,3.5553,3.5544,3.5562,3.5545,3.5551,3.5547,3.5525,3.5524,3.555,3.5547,3.5527,3.5574,3.5546,3.5551,3.5575,3.5583,3.559,3.5589,3.5492,0,0,0,0,0,3.5558,3.5572,3.5561,3.559,3.5591,3.5577,3.5583,3.557,3.5569,3.5569,3.5562,3.5562,3.557,3.5577,3.5584,3.5618,3.5615,3.5634,3.564,3.5646,3.5649,3.5664,3.5672,3.5589,3.5589,3.5589,0,0,3.5586,3.5581,3.5591,3.5599,3.5598,3.5611,3.5577,3.5593,3.5602,3.5571,3.5592,3.5587,3.5585,3.5612,3.5624,3.561,3.5671,3.565,3.5654,3.5655,3.5668,3.5676,3.5683,3.5592,3.5591,3.5591,0,0,3.5643,3.5642,3.5665,3.5664,3.5662,3.5652,3.5657,3.5651,3.5646,3.5667,3.5643,3.5653,3.5669,3.5668,3.5669,3.5723,3.5704,3.5726,3.576,3.5775,3.5781,3.5787,3.5804,3.5811,3.573,3.573,3.573,0,3.5677,3.5697,3.5679,3.5696,3.5699,3.5671,3.5693,3.5693,3.5694,3.5696,3.568,3.5699,3.5696,3.5721,3.5734,3.5737,3.5741,3.5727,3.5782,3.5787,3.5792,3.5808,3.5815,3.5733,3.5733,3.5732,3.5732,0,3.5738,3.5752,3.5771,3.5772,3.5777,3.5797,3.578,3.5788,3.5774,3.5765,3.5785,3.578,3.5785,3.579,3.5777,3.5813,3.5804,3.5786,3.5757,3.5803,3.5817,3.5824,3.5737,3.5736,3.5735,3.5734,0,0,3.5823,3.5812,3.582,3.5818,3.5814,3.5823,3.5841,3.5846,3.5851,3.5852,3.5865,3.5879,3.5861,3.5862,3.5849,3.5862,3.5902,3.5841,3.5841,3.5851,3.5939,3.5952,3.596,3.589,3.5891,3.5892,3.5938,0,3.5877,3.5906,3.5889,3.5921,3.5932,3.5905,3.5919,3.5917,3.5909,3.5916,3.5907,3.5916,3.5892,3.5893,3.5905,3.5895,3.5919,3.5891,3.59,3.59,3.59,3.5968,3.5982,3.6026,3.5944,3.5945,3.5946,0,3.5943,3.5946,3.5979,3.5969,3.5973,3.5987,3.5989,3.5997,3.5993,3.5986,3.5987,3.5969,3.5984,3.5957,3.5976,3.5957,3.5959,3.5955,3.5956,3.5955,3.5925,3.5967,3.604,3.6046,3.5955,3.5955,3.5954,0,3.6,3.6012,3.6032,3.6032,3.6022,3.6032,3.6028,3.6023,3.6026,3.6027,3.6029,3.6032,3.6034,3.6036,3.6019,3.6001,3.6039,3.6011,3.6032,3.6032,3.6041,3.604,3.6114,3.6045,3.6045,3.6044,3.6044,0,3.606,3.6081,3.6057,3.6069,3.6091,3.607,3.6092,3.6085,3.608,3.6089,3.6066,3.6075,3.6053,3.606,3.6046,3.6063,3.6064,3.6057,3.6053,3.6059,3.6059,3.6059,3.6055,3.6046,3.6046,3.6046,3.6045,0,3.6127,3.6112,3.6132,3.612,3.6118,3.6134,3.6123,3.6133,3.6123,3.6135,3.6136,3.612,3.6126,3.6109,3.6113,3.6104,3.6127,3.6119,3.6128,3.6125,3.6146,3.6144,3.6222,3.623,3.6157,3.6158,3.6158,0,3.6166,3.6181,3.617,3.6175,3.6172,3.618,3.6183,3.6163,3.6166,3.6162,3.6172,3.6176,3.6178,3.6189,3.6177,3.6179,3.6169,3.6196,3.617,3.6174,3.6168,3.6166,3.6167,3.6202,3.6203,3.6203,3.6204,0,3.6237,3.6228,3.6233,3.6234,3.6238,3.6239,3.6237,3.6242,3.6221,3.6225,3.6231,3.6233,3.6236,3.624,3.6239,3.6234,3.6215,3.6212,3.6217,3.6222,3.6226,3.6222,3.6142,3.6211,3.621,3.6209,3.6209,3.6209,3.6289,3.63,3.6294,3.6299,3.6296,3.6295,3.6303,3.6293,3.6297,3.6298,3.6286,3.6294,3.6287,3.6284,3.628,3.6285,3.6273,3.628,3.6281,3.6283,3.6286,3.6226,3.6285,3.6285,3.6285,3.6285,3.6284,0,3.6357,3.6351,3.6356,3.6354,3.6358,3.634,3.6337,3.6341,3.6348,3.6344,3.6346,3.6351,3.6354,3.6342,3.6342,3.6349,3.634,3.6349,3.6348,3.6347,3.6298,3.6293,3.6356,3.6356,3.6356,3.6356,3.6356,3.6356,3.6393,3.6409,3.6399,3.6413,3.6407,3.6414,3.6414,3.6412,3.6408,3.6415,3.6417,3.6409,3.64,3.64,3.6401,3.6397,3.6398,3.641,3.6403,3.6357,3.635,3.6344,3.6339,3.6411,3.6411,3.6451,3.6451,3.6451]}]]